Вернуться в каталог

STARLINK-35179

АктивенСвязьVLEO
NORAD 66066·PAYLOAD·🇺🇸 United States

Запущен Oct 19, 2025 с Cape Canaveral Space Force Station

Loading…

Ближайшие Пролёты (ближайшие 24 часа)

TLE

СвежийSource: CelesTrak SupGP

Эпоха: Sep 14, 2026, 22:55 UTC

1 66066C 25235J   26257.95534722  .00059413  00000+0  17546-2 0  2573
2 66066  53.1595  85.5319 0001147  80.8797  64.4948 15.34374429    15

Отслеживайте STARLINK-35179 в реальном времени с AllMySat

Download on the App Store